Weather in Ivacevichi

Belarus     52°42′32″N   25°20′19″E
temp.,
°C
wind,
m/s
gust,
m/s
humid.,
%
clouds,
%
prec.,
mm/h
press.,
hPa
HPBL,
m
22 january, sat
sat2200:00−3wnw8148695 0.1 1007862
03:00−4wnw71491100 0.1 1007796
06:00−3nw61294100 0.4 1007864
09:00−4nnw6119194 1.0 1009661
12:00−4n7128699 0.1 1013772
15:00−4nnw71182100 0.1 1015894
18:00−4nw61288100 0.1 1017805
21:00−5nw7149194 0.1 1019752
23 january, sun
sun2300:00−5nw61292100 0.1 1019619
03:00−5nnw6119398 0.4 1021648
06:00−6n5109279 0.2 1023481
09:00−8n4109371 0.2 1026344
12:00−7nne488772 0.0 1029401
15:00−6nne468180 0.0 1031518
18:00−9nne24945 0.0 103356
21:00−10n24966 0.0 103567
24 january, mon
mon2400:00−11nne24968 0.0 103767
03:00−12ene129738 0.0 103840
06:00−13nne119725 0.0 103810
09:00−13ene119725 0.0 103910
12:00−8sse12885 0.0 1038130
15:00−6wsw23825 0.0 1037280
18:00−9ssw22945 0.0 103611
21:00−10ssw24955 0.0 103547
25 january, tue
tue2500:00−10sw259513 0.0 103374
03:00−9sw3794100 0.0 1031123
06:00−7ssw3895100 0.1 1028219
09:00−5sw4896100 1.1 1025245
12:00−3wsw3896100 0.3 1023254
15:00−1wsw3897100 0.6 1021280
18:000wnw41099100 0.8 1020489
21:000n71195100 1.6 1020752
26 january, wed
wed2600:00−3nnw7139275 0.1 1023432
03:00−5n6119199 0.1 1024510
06:00−6n599292 0.1 1026477
09:00−6n4688100 0.1 1027484
12:00−6nw359034 0.0 1027238
15:00−4nw358632 0.0 1027343
18:00−7wsw2295100 0.0 102514
21:00−6sw3794100 0.0 1023136